SB KEPS @ AMSAT $ORB11167.O Orbital Elements 11167.OSCAR
HR AMSAT ORBITAL ELEMENTS FOR OSCAR SATELLITES FROM WA5QGD FORT WORTH,TX June 16, 2011 Send Subscribe/unsubscribe to KEPS at http://www.amsat.org/mailman/listinfo/keps BID: ORB11167.O TO ALL RADIO AMATEURS BT
Satellite: FO-29 Catalog number: 24278 Epoch time: 11166.42788216 Element set: 596 Inclination: 098.5430 deg RA of node: 310.7884 deg Eccentricity: 0.0349589 Arg of perigee: 261.7692 deg Mean anomaly: 094.3668 deg Mean motion: 13.52962444 rev/day Decay rate: 1.00e-06 rev/day^2 Epoch rev: 73222 Checksum: 341
Satellite: SO-33 Catalog number: 25509 Epoch time: 11166.62634033 Element set: 0990 Inclination: 031.4347 deg RA of node: 253.1448 deg Eccentricity: 0.0354280 Arg of perigee: 227.9976 deg Mean anomaly: 128.9947 deg Mean motion: 14.28415695 rev/day Decay rate: 3.08e-06 rev/day^2 Epoch rev: 66005 Checksum: 323
Satellite: AO-07 Catalog number: 07530 Epoch time: 11167.03879067 Element set: 104 Inclination: 101.3913 deg RA of node: 173.6251 deg Eccentricity: 0.0011643 Arg of perigee: 282.7758 deg Mean anomaly: 077.2019 deg Mean motion: 12.53582711 rev/day Decay rate: -2.7e-07 rev/day^2 Epoch rev: 67404 Checksum: 283
Satellite: VO-52 Catalog number: 28650 Epoch time: 11167.68993629 Element set: 822 Inclination: 097.6407 deg RA of node: 210.8432 deg Eccentricity: 0.0026930 Arg of perigee: 160.5269 deg Mean anomaly: 199.7003 deg Mean motion: 14.82086480 rev/day Decay rate: 6.56e-06 rev/day^2 Epoch rev: 33067 Checksum: 326
Satellite: RS-22 Catalog number: 27939 Epoch time: 11167.74437911 Element set: 359 Inclination: 097.8476 deg RA of node: 021.7646 deg Eccentricity: 0.0013489 Arg of perigee: 352.1722 deg Mean anomaly: 007.9269 deg Mean motion: 14.63597270 rev/day Decay rate: 1.62e-06 rev/day^2 Epoch rev: 41227 Checksum: 329
Satellite: HO-68 Catalog number: 36122 Epoch time: 11167.85862867 Element set: 474 Inclination: 100.4152 deg RA of node: 228.6751 deg Eccentricity: 0.0007255 Arg of perigee: 224.3312 deg Mean anomaly: 135.7210 deg Mean motion: 13.16286727 rev/day Decay rate: -4.4e-07 rev/day^2 Epoch rev: 7219 Checksum: 290
Satellite: SO-67 Catalog number: 35870 Epoch time: 11167.95305606 Element set: 941 Inclination: 097.2812 deg RA of node: 211.3205 deg Eccentricity: 0.0003568 Arg of perigee: 048.7124 deg Mean anomaly: 035.2249 deg Mean motion: 15.20795513 rev/day Decay rate: 1.430e-05 rev/day^2 Epoch rev: 9690 Checksum: 295
/EX SB KEPS @ AMSAT $ORB11167.D Orbital Elements 11167.MICROS
HR AMSAT ORBITAL ELEMENTS FOR THE MICROSATS FROM WA5QGD FORT WORTH,TX June 16, 2011 Send Subscribe/unsubscribe to KEPS at http://www.amsat.org/mailman/listinfo/keps BID: ORB11167.D TO ALL RADIO AMATEURS BT
Satellite: GO-32 Catalog number: 25397 Epoch time: 11166.50604404 Element set: 0504 Inclination: 098.3245 deg RA of node: 159.1574 deg Eccentricity: 0.0000421 Arg of perigee: 325.6564 deg Mean anomaly: 034.4582 deg Mean motion: 14.23211747 rev/day Decay rate: 1.56e-06 rev/day^2 Epoch rev: 67172 Checksum: 282
Satellite: CO-55 Catalog number: 27844 Epoch time: 11166.55717514 Element set: 0132 Inclination: 098.7053 deg RA of node: 175.2814 deg Eccentricity: 0.0009181 Arg of perigee: 199.6094 deg Mean anomaly: 160.4753 deg Mean motion: 14.20817002 rev/day Decay rate: 1.38e-06 rev/day^2 Epoch rev: 41268 Checksum: 302
Satellite: UO-11 Catalog number: 14781 Epoch time: 11166.71918911 Element set: 575 Inclination: 098.0064 deg RA of node: 223.4352 deg Eccentricity: 0.0009665 Arg of perigee: 137.5923 deg Mean anomaly: 222.6035 deg Mean motion: 14.79983879 rev/day Decay rate: 1.80e-06 rev/day^2 Epoch rev: 46557 Checksum: 327
Satellite: STUDSAT Catalog number: 36801 Epoch time: 11166.72580930 Element set: 0198 Inclination: 098.1066 deg RA of node: 234.8291 deg Eccentricity: 0.0012453 Arg of perigee: 272.3348 deg Mean anomaly: 087.6425 deg Mean motion: 14.80672053 rev/day Decay rate: 1.806e-05 rev/day^2 Epoch rev: 05008 Checksum: 292
Satellite: AO-27 Catalog number: 22825 Epoch time: 11166.89029633 Element set: 842 Inclination: 098.5315 deg RA of node: 111.3717 deg Eccentricity: 0.0007551 Arg of perigee: 280.4623 deg Mean anomaly: 079.5700 deg Mean motion: 14.29350624 rev/day Decay rate: -5.4e-07 rev/day^2 Epoch rev: 92400 Checksum: 292
Satellite: SO-50 Catalog number: 27607 Epoch time: 11166.91027570 Element set: 491 Inclination: 064.5587 deg RA of node: 331.5544 deg Eccentricity: 0.0072228 Arg of perigee: 321.4571 deg Mean anomaly: 038.1400 deg Mean motion: 14.71758622 rev/day Decay rate: 1.53e-06 rev/day^2 Epoch rev: 45590 Checksum: 292
Satellite: AO-51 Catalog number: 28375 Epoch time: 11166.93042308 Element set: 996 Inclination: 098.0979 deg RA of node: 145.4420 deg Eccentricity: 0.0084972 Arg of perigee: 073.6596 deg Mean anomaly: 287.3920 deg Mean motion: 14.40761713 rev/day Decay rate: 8.4e-07 rev/day^2 Epoch rev: 36588 Checksum: 345
Satellite: CP3 Catalog number: 31129 Epoch time: 11167.04710147 Element set: 894 Inclination: 097.8979 deg RA of node: 191.3280 deg Eccentricity: 0.0102515 Arg of perigee: 183.4584 deg Mean anomaly: 176.5963 deg Mean motion: 14.52497529 rev/day Decay rate: 4.75e-06 rev/day^2 Epoch rev: 22067 Checksum: 327
Satellite: NO-44 Catalog number: 26931 Epoch time: 11167.13167015 Element set: 777 Inclination: 067.0532 deg RA of node: 346.2472 deg Eccentricity: 0.0006727 Arg of perigee: 255.9839 deg Mean anomaly: 104.0500 deg Mean motion: 14.29665478 rev/day Decay rate: 2.94e-06 rev/day^2 Epoch rev: 50677 Checksum: 316
Satellite: CO-65 Catalog number: 32785 Epoch time: 11167.20051534 Element set: 17 Inclination: 097.8501 deg RA of node: 231.1133 deg Eccentricity: 0.0014907 Arg of perigee: 175.0307 deg Mean anomaly: 185.1123 deg Mean motion: 14.82018069 rev/day Decay rate: 2.71e-06 rev/day^2 Epoch rev: 16939 Checksum: 276
Satellite: IO-26 Catalog number: 22826 Epoch time: 11167.37990508 Element set: 586 Inclination: 098.5238 deg RA of node: 112.3253 deg Eccentricity: 0.0007904 Arg of perigee: 273.7327 deg Mean anomaly: 086.2949 deg Mean motion: 14.29613317 rev/day Decay rate: 3.5e-07 rev/day^2 Epoch rev: 92419 Checksum: 326
Satellite: CO-57 Catalog number: 27848 Epoch time: 11167.55681636 Element set: 82 Inclination: 098.7117 deg RA of node: 175.4554 deg Eccentricity: 0.0008922 Arg of perigee: 200.5373 deg Mean anomaly: 159.5452 deg Mean motion: 14.20596095 rev/day Decay rate: 1.03e-06 rev/day^2 Epoch rev: 41277 Checksum: 319
Satellite: PRISM Catalog number: 33493 Epoch time: 11167.89004526 Element set: 684 Inclination: 098.1247 deg RA of node: 296.4963 deg Eccentricity: 0.0020690 Arg of perigee: 045.2510 deg Mean anomaly: 315.0354 deg Mean motion: 14.81733892 rev/day Decay rate: 9.53e-06 rev/day^2 Epoch rev: 12947 Checksum: 310
Satellite: LO-19 Catalog number: 20442 Epoch time: 11167.89194940 Element set: 125 Inclination: 098.3467 deg RA of node: 121.8733 deg Eccentricity: 0.0012100 Arg of perigee: 153.4718 deg Mean anomaly: 206.7084 deg Mean motion: 14.32150249 rev/day Decay rate: 6.9e-07 rev/day^2 Epoch rev: 11775 Checksum: 290
Satellite: SOHLA-1 Catalog number: 33496 Epoch time: 11167.91402086 Element set: 439 Inclination: 098.0806 deg RA of node: 277.7484 deg Eccentricity: 0.0007444 Arg of perigee: 119.0301 deg Mean anomaly: 241.1649 deg Mean motion: 14.69624610 rev/day Decay rate: 7.2e-07 rev/day^2 Epoch rev: 12844 Checksum: 297
Satellite: TISAT-1 Catalog number: 36799 Epoch time: 11167.93401387 Element set: 958 Inclination: 098.1021 deg RA of node: 236.1821 deg Eccentricity: 0.0013888 Arg of perigee: 279.2841 deg Mean anomaly: 080.6779 deg Mean motion: 14.80580157 rev/day Decay rate: 6.05e-06 rev/day^2 Epoch rev: 5027 Checksum: 324
Satellite: AO-16 Catalog number: 20439 Epoch time: 11168.02203326 Element set: 210 Inclination: 098.3846 deg RA of node: 117.6454 deg Eccentricity: 0.0011005 Arg of perigee: 159.2587 deg Mean anomaly: 200.9044 deg Mean motion: 14.31924629 rev/day Decay rate: 4.3e-07 rev/day^2 Epoch rev: 11759 Checksum: 274
Satellite: RAX Catalog number: 37223 Epoch time: 11152.36844328 Element set: 0173 Inclination: 071.9713 deg RA of node: 073.6151 deg Eccentricity: 0.0021634 Arg of perigee: 311.5989 deg Mean anomaly: 048.3343 deg Mean motion: 14.77415682 rev/day Decay rate: 6.35e-06 rev/day^2 Epoch rev: 02854 Checksum: 291
Satellite: OOREOS Catalog number: 37224 Epoch time: 11153.29456974 Element set: 0179 Inclination: 071.9726 deg RA of node: 071.8135 deg Eccentricity: 0.0020315 Arg of perigee: 307.7637 deg Mean anomaly: 052.1684 deg Mean motion: 14.77036357 rev/day Decay rate: 4.92e-06 rev/day^2 Epoch rev: 02867 Checksum: 309
Satellite: FO-69 Catalog number: 37227 Epoch time: 11167.24478769 Element set: 0056 Inclination: 071.9713 deg RA of node: 041.3462 deg Eccentricity: 0.0018601 Arg of perigee: 281.5288 deg Mean anomaly: 078.3784 deg Mean motion: 14.76598248 rev/day Decay rate: 1.83e-06 rev/day^2 Epoch rev: 00918 Checksum: 339
Satellite: NANOSALD Catalog number: 37361 Epoch time: 11164.26133611 Element set: 0238 Inclination: 071.9479 deg RA of node: 042.9478 deg Eccentricity: 0.0032007 Arg of perigee: 135.3604 deg Mean anomaly: 224.9404 deg Mean motion: 15.00358219 rev/day Decay rate: 1.81075e-03 rev/day^2 Epoch rev: 02153 Checksum: 272
Satellite: FO-70 Catalog number: 37380 Epoch time: 11167.25830072 Element set: 0192 Inclination: 071.9740 deg RA of node: 041.4222 deg Eccentricity: 0.0019070 Arg of perigee: 279.1649 deg Mean anomaly: 080.7346 deg Mean motion: 14.76364371 rev/day Decay rate: 1.42e-06 rev/day^2 Epoch rev: 03072 Checksum: 280
/EX SB KEPS @ AMSAT $ORB11167.W Orbital Elements 11167.WEATHER
HR AMSAT ORBITAL ELEMENTS FOR WEATHER SATELLITES FROM WA5QGD FORT WORTH,TX June 16, 2011 Send Subscribe/unsubscribe to KEPS at http://www.amsat.org/mailman/listinfo/keps BID: ORB11167.W TO ALL RADIO AMATEURS BT
